Year,Month,Day,Hour,Minute,Value (Times are PST for temperature in C)
2016,04,08,00,00,11.60
2016,04,08,00,01,11.60
2016,04,08,00,02,11.60
2016,04,08,00,03,11.60
2016,04,08,00,04,11.60
2016,04,08,00,05,11.50
2016,04,08,00,06,11.50
2016,04,08,00,07,11.50
2016,04,08,00,08,11.40
2016,04,08,00,09,11.40
2016,04,08,00,10,11.40
2016,04,08,00,11,11.40
2016,04,08,00,12,11.40
2016,04,08,00,13,11.30
2016,04,08,00,14,11.30
2016,04,08,00,15,11.30
2016,04,08,00,16,11.30
2016,04,08,00,17,11.30
2016,04,08,00,18,11.30
2016,04,08,00,19,11.30
2016,04,08,00,20,11.20
2016,04,08,00,21,11.20
2016,04,08,00,22,11.20
2016,04,08,00,23,11.20
2016,04,08,00,24,11.20
2016,04,08,00,25,11.20
2016,04,08,00,26,11.20
2016,04,08,00,27,11.20
2016,04,08,00,28,11.20
2016,04,08,00,29,11.20
2016,04,08,00,30,11.20
2016,04,08,00,31,11.20
2016,04,08,00,32,11.20
2016,04,08,00,33,11.10
2016,04,08,00,34,11.10
2016,04,08,00,35,11.20
2016,04,08,00,36,11.20
2016,04,08,00,37,11.20
2016,04,08,00,38,11.20
2016,04,08,00,39,11.20
2016,04,08,00,40,11.10
2016,04,08,00,41,11.10
2016,04,08,00,42,11.10
2016,04,08,00,43,11.10
2016,04,08,00,44,11.10
2016,04,08,00,45,11.10
2016,04,08,00,46,11.10
2016,04,08,00,47,11.00
2016,04,08,00,48,11.00
2016,04,08,00,49,11.00
2016,04,08,00,50,11.00
2016,04,08,00,51,11.00
2016,04,08,00,52,10.90
2016,04,08,00,53,10.90
2016,04,08,00,54,10.90
2016,04,08,00,55,10.90
2016,04,08,00,56,10.90
2016,04,08,00,57,10.80
2016,04,08,00,58,10.80
2016,04,08,00,59,10.80
2016,04,08,01,00,10.80
2016,04,08,01,01,10.80
2016,04,08,01,02,10.80
2016,04,08,01,03,10.70
2016,04,08,01,04,10.70
2016,04,08,01,05,10.70
2016,04,08,01,06,10.70
2016,04,08,01,07,10.70
2016,04,08,01,08,10.70
2016,04,08,01,09,10.70
2016,04,08,01,10,10.70
2016,04,08,01,11,10.60
2016,04,08,01,12,10.60
2016,04,08,01,13,10.60
2016,04,08,01,14,10.60
2016,04,08,01,15,10.60
2016,04,08,01,16,10.60
2016,04,08,01,17,10.60
2016,04,08,01,18,10.50
2016,04,08,01,19,10.50
2016,04,08,01,20,10.50
2016,04,08,01,21,10.40
2016,04,08,01,22,10.40
2016,04,08,01,23,10.40
2016,04,08,01,24,10.40
2016,04,08,01,25,10.40
2016,04,08,01,26,10.40
2016,04,08,01,27,10.40
2016,04,08,01,28,10.30
2016,04,08,01,29,10.30
2016,04,08,01,30,10.30
2016,04,08,01,31,10.30
2016,04,08,01,32,10.30
2016,04,08,01,33,10.30
2016,04,08,01,34,10.20
2016,04,08,01,35,10.20
2016,04,08,01,36,10.20
2016,04,08,01,37,10.30
2016,04,08,01,38,10.20
2016,04,08,01,39,10.20
2016,04,08,01,40,10.20
2016,04,08,01,41,10.20
2016,04,08,01,42,10.20
2016,04,08,01,43,10.20
2016,04,08,01,44,10.20
2016,04,08,01,45,10.20
2016,04,08,01,46,10.20
2016,04,08,01,47,10.20
2016,04,08,01,48,10.10
2016,04,08,01,49,10.10
2016,04,08,01,50,10.10
2016,04,08,01,51,10.10
2016,04,08,01,52,10.10
2016,04,08,01,53,10.10
2016,04,08,01,54,10.10
2016,04,08,01,55,10.10
2016,04,08,01,56,10.00
2016,04,08,01,57,10.00
2016,04,08,01,58,10.00
2016,04,08,01,59,9.90
2016,04,08,02,00,9.90
2016,04,08,02,01,9.90
2016,04,08,02,02,9.90
2016,04,08,02,03,9.90
2016,04,08,02,04,9.90
2016,04,08,02,05,9.90
2016,04,08,02,06,9.80
2016,04,08,02,07,9.80
2016,04,08,02,08,9.90
2016,04,08,02,09,9.80
2016,04,08,02,10,9.80
2016,04,08,02,11,9.80
2016,04,08,02,12,9.80
2016,04,08,02,13,9.80
2016,04,08,02,14,9.80
2016,04,08,02,15,9.80
2016,04,08,02,16,9.70
2016,04,08,02,17,9.80
2016,04,08,02,18,9.70
2016,04,08,02,19,9.70
2016,04,08,02,20,9.70
2016,04,08,02,21,9.70
2016,04,08,02,22,9.70
2016,04,08,02,23,9.70
2016,04,08,02,24,9.70
2016,04,08,02,25,9.70
2016,04,08,02,26,9.70
2016,04,08,02,27,9.60
2016,04,08,02,28,9.60
2016,04,08,02,29,9.60
2016,04,08,02,30,9.60
2016,04,08,02,31,9.60
2016,04,08,02,32,9.60
2016,04,08,02,33,9.60
2016,04,08,02,34,9.60
2016,04,08,02,35,9.60
2016,04,08,02,36,9.60
2016,04,08,02,37,9.50
2016,04,08,02,38,9.50
2016,04,08,02,39,9.50
2016,04,08,02,40,9.50
2016,04,08,02,41,9.50
2016,04,08,02,42,9.50
2016,04,08,02,43,9.50
2016,04,08,02,44,9.50
2016,04,08,02,45,9.40
2016,04,08,02,46,9.40
2016,04,08,02,47,9.40
2016,04,08,02,48,9.40
2016,04,08,02,49,9.40
2016,04,08,02,50,9.40
2016,04,08,02,51,9.40
2016,04,08,02,52,9.40
2016,04,08,02,53,9.40
2016,04,08,02,54,9.40
2016,04,08,02,55,9.40
2016,04,08,02,56,9.40
2016,04,08,02,57,9.40
2016,04,08,02,58,9.30
2016,04,08,02,59,9.30
2016,04,08,03,00,9.30
2016,04,08,03,01,9.30
2016,04,08,03,02,9.30
2016,04,08,03,03,9.30
2016,04,08,03,04,9.30
2016,04,08,03,05,9.30
2016,04,08,03,06,9.30
2016,04,08,03,07,9.20
2016,04,08,03,08,9.30
2016,04,08,03,09,9.20
2016,04,08,03,10,9.20
2016,04,08,03,11,9.20
2016,04,08,03,12,9.20
2016,04,08,03,13,9.20
2016,04,08,03,14,9.20
2016,04,08,03,15,9.20
2016,04,08,03,16,9.20
2016,04,08,03,17,9.20
2016,04,08,03,18,9.20
2016,04,08,03,19,9.20
2016,04,08,03,20,9.20
2016,04,08,03,21,9.30
2016,04,08,03,22,9.30
2016,04,08,03,23,9.30
2016,04,08,03,24,9.30
2016,04,08,03,25,9.30
2016,04,08,03,26,9.30
2016,04,08,03,27,9.30
2016,04,08,03,28,9.30
2016,04,08,03,29,9.40
2016,04,08,03,30,9.40
2016,04,08,03,31,9.40
2016,04,08,03,32,9.40
2016,04,08,03,33,9.40
2016,04,08,03,34,9.40
2016,04,08,03,35,9.40
2016,04,08,03,36,9.40
2016,04,08,03,37,9.40
2016,04,08,03,38,9.40
2016,04,08,03,39,9.30
2016,04,08,03,40,9.30
2016,04,08,03,41,9.30
2016,04,08,03,42,9.30
2016,04,08,03,43,9.30
2016,04,08,03,44,9.30
2016,04,08,03,45,9.30
2016,04,08,03,46,9.30
2016,04,08,03,47,9.20
2016,04,08,03,48,9.20
2016,04,08,03,49,9.20
2016,04,08,03,50,9.20
2016,04,08,03,51,9.20
2016,04,08,03,52,9.10
2016,04,08,03,53,9.10
2016,04,08,03,54,9.10
2016,04,08,03,55,9.10
2016,04,08,03,56,9.10
2016,04,08,03,57,9.10
2016,04,08,03,58,9.00
2016,04,08,03,59,9.00
2016,04,08,04,00,9.00
2016,04,08,04,01,9.00
2016,04,08,04,02,8.90
2016,04,08,04,03,8.90
2016,04,08,04,04,8.90
2016,04,08,04,05,8.90
2016,04,08,04,06,8.90
2016,04,08,04,07,8.90
2016,04,08,04,08,8.80
2016,04,08,04,09,8.80
2016,04,08,04,10,8.80
2016,04,08,04,11,8.80
2016,04,08,04,12,8.80
2016,04,08,04,13,8.80
2016,04,08,04,14,8.80
2016,04,08,04,15,8.80
2016,04,08,04,16,8.80
2016,04,08,04,17,8.80
2016,04,08,04,18,8.80
2016,04,08,04,19,8.80
2016,04,08,04,20,8.80
2016,04,08,04,21,8.80
2016,04,08,04,22,8.80
2016,04,08,04,23,8.80
2016,04,08,04,24,8.80
2016,04,08,04,25,8.80
2016,04,08,04,26,8.70
2016,04,08,04,27,8.70
2016,04,08,04,28,8.70
2016,04,08,04,29,8.70
2016,04,08,04,30,8.70
2016,04,08,04,31,8.70
2016,04,08,04,32,8.70
2016,04,08,04,33,8.70
2016,04,08,04,34,8.70
2016,04,08,04,35,8.60
2016,04,08,04,36,8.60
2016,04,08,04,37,8.60
2016,04,08,04,38,8.60
2016,04,08,04,39,8.60
2016,04,08,04,40,8.60
2016,04,08,04,41,8.60
2016,04,08,04,42,8.60
2016,04,08,04,43,8.60
2016,04,08,04,44,8.60
2016,04,08,04,45,8.50
2016,04,08,04,46,8.50
2016,04,08,04,47,8.50
2016,04,08,04,48,8.50
2016,04,08,04,49,8.50
2016,04,08,04,50,8.50
2016,04,08,04,51,8.50
2016,04,08,04,52,8.50
2016,04,08,04,53,8.40
2016,04,08,04,54,8.40
2016,04,08,04,55,8.40
2016,04,08,04,56,8.40
2016,04,08,04,57,8.40
2016,04,08,04,58,8.40
2016,04,08,04,59,8.40
2016,04,08,05,00,8.40
2016,04,08,05,01,8.40
2016,04,08,05,02,8.40
2016,04,08,05,03,8.40
2016,04,08,05,04,8.40
2016,04,08,05,05,8.40
2016,04,08,05,06,8.40
2016,04,08,05,07,8.40
2016,04,08,05,08,8.40
2016,04,08,05,09,8.40
2016,04,08,05,10,8.40
2016,04,08,05,11,8.40
2016,04,08,05,12,8.40
2016,04,08,05,13,8.40
2016,04,08,05,14,8.40
2016,04,08,05,15,8.30
2016,04,08,05,16,8.30
2016,04,08,05,17,8.30
2016,04,08,05,18,8.30
2016,04,08,05,19,8.30
2016,04,08,05,20,8.30
2016,04,08,05,21,8.20
2016,04,08,05,22,8.20
2016,04,08,05,23,8.20
2016,04,08,05,24,8.20
2016,04,08,05,25,8.20
2016,04,08,05,26,8.20
2016,04,08,05,27,8.20
2016,04,08,05,28,8.20
2016,04,08,05,29,8.20
2016,04,08,05,30,8.20
2016,04,08,05,31,8.20
2016,04,08,05,32,8.20
2016,04,08,05,33,8.20
2016,04,08,05,34,8.20
2016,04,08,05,35,8.20
2016,04,08,05,36,8.10
2016,04,08,05,37,8.10
2016,04,08,05,38,8.10
2016,04,08,05,39,8.10
2016,04,08,05,40,8.10
2016,04,08,05,41,8.10
2016,04,08,05,42,8.10
2016,04,08,05,43,8.00
2016,04,08,05,44,8.00
2016,04,08,05,45,8.00
2016,04,08,05,46,8.00
2016,04,08,05,47,8.00
2016,04,08,05,48,8.00
2016,04,08,05,49,8.00
2016,04,08,05,50,8.00
2016,04,08,05,51,8.00
2016,04,08,05,52,8.00
2016,04,08,05,53,7.90
2016,04,08,05,54,7.90
2016,04,08,05,55,7.90
2016,04,08,05,56,8.00
2016,04,08,05,57,8.00
2016,04,08,05,58,8.00
2016,04,08,05,59,8.00
2016,04,08,06,00,8.00
2016,04,08,06,01,8.00
2016,04,08,06,02,8.00
2016,04,08,06,03,8.00
2016,04,08,06,04,8.00
2016,04,08,06,05,8.00
2016,04,08,06,06,8.00
2016,04,08,06,07,8.00
2016,04,08,06,08,8.00
2016,04,08,06,09,7.90
2016,04,08,06,10,7.90
2016,04,08,06,11,7.90
2016,04,08,06,12,7.90
2016,04,08,06,13,7.90
2016,04,08,06,14,7.90
2016,04,08,06,15,7.80
2016,04,08,06,16,7.80
2016,04,08,06,17,7.80
2016,04,08,06,18,7.80
2016,04,08,06,19,7.80
2016,04,08,06,20,7.80
2016,04,08,06,21,7.70
2016,04,08,06,22,7.70
2016,04,08,06,23,7.70
2016,04,08,06,24,7.70
2016,04,08,06,25,7.70
2016,04,08,06,26,7.70
2016,04,08,06,27,7.70
2016,04,08,06,28,7.60
2016,04,08,06,29,7.60
2016,04,08,06,30,7.70
2016,04,08,06,31,7.70
2016,04,08,06,32,7.70
2016,04,08,06,33,7.70
2016,04,08,06,34,7.70
2016,04,08,06,35,7.70
2016,04,08,06,36,7.60
2016,04,08,06,37,7.70
2016,04,08,06,38,7.70
2016,04,08,06,39,7.70
2016,04,08,06,40,7.70
2016,04,08,06,41,7.70
2016,04,08,06,42,7.70
2016,04,08,06,43,7.70
2016,04,08,06,44,7.70
2016,04,08,06,45,7.80
2016,04,08,06,46,7.80
2016,04,08,06,47,7.70
2016,04,08,06,48,7.70
2016,04,08,06,49,7.70
2016,04,08,06,50,7.70
2016,04,08,06,51,7.70
2016,04,08,06,52,7.70
2016,04,08,06,53,7.70
2016,04,08,06,54,7.70
2016,04,08,06,55,7.70
2016,04,08,06,56,7.70
2016,04,08,06,57,7.70
2016,04,08,06,58,7.80
2016,04,08,06,59,7.80
2016,04,08,07,00,7.80
2016,04,08,07,01,7.80
2016,04,08,07,02,7.80
2016,04,08,07,03,7.90
2016,04,08,07,04,7.90
2016,04,08,07,05,8.00
2016,04,08,07,06,8.00
2016,04,08,07,07,8.10
2016,04,08,07,08,8.10
2016,04,08,07,09,8.20
2016,04,08,07,10,8.20
2016,04,08,07,11,8.20
2016,04,08,07,12,8.30
2016,04,08,07,13,8.30
2016,04,08,07,14,8.30
2016,04,08,07,15,8.30
2016,04,08,07,16,8.30
2016,04,08,07,17,8.30
2016,04,08,07,18,8.30
2016,04,08,07,19,8.30
2016,04,08,07,20,8.30
2016,04,08,07,21,8.30
2016,04,08,07,22,8.30
2016,04,08,07,23,8.30
2016,04,08,07,24,8.30
2016,04,08,07,25,8.30
2016,04,08,07,26,8.20
2016,04,08,07,27,8.20
2016,04,08,07,28,8.20
2016,04,08,07,29,8.20
2016,04,08,07,30,8.20
2016,04,08,07,31,8.20
2016,04,08,07,32,8.20
2016,04,08,07,33,8.20
2016,04,08,07,34,8.30
2016,04,08,07,35,8.30
2016,04,08,07,36,8.30
2016,04,08,07,37,8.30
2016,04,08,07,38,8.30
2016,04,08,07,39,8.30
2016,04,08,07,40,8.30
2016,04,08,07,41,8.40
2016,04,08,07,42,8.40
2016,04,08,07,43,8.50
2016,04,08,07,44,8.50
2016,04,08,07,45,8.60
2016,04,08,07,46,8.60
2016,04,08,07,47,8.70
2016,04,08,07,48,8.70
2016,04,08,07,49,8.70
2016,04,08,07,50,8.70
2016,04,08,07,51,8.70
2016,04,08,07,52,8.80
2016,04,08,07,53,8.80
2016,04,08,07,54,8.80
2016,04,08,07,55,8.80
2016,04,08,07,56,8.90
2016,04,08,07,57,8.90
2016,04,08,07,58,9.00
2016,04,08,07,59,9.00
2016,04,08,08,00,9.00
2016,04,08,08,01,9.10
2016,04,08,08,02,9.10
2016,04,08,08,03,9.10
2016,04,08,08,04,9.20
2016,04,08,08,05,9.20
2016,04,08,08,06,9.30
2016,04,08,08,07,9.30
2016,04,08,08,08,9.30
2016,04,08,08,09,9.40
2016,04,08,08,10,9.40
2016,04,08,08,11,9.40
2016,04,08,08,12,9.50
2016,04,08,08,13,9.60
2016,04,08,08,14,9.70
2016,04,08,08,15,9.70
2016,04,08,08,16,9.80
2016,04,08,08,17,9.80
2016,04,08,08,18,9.90
2016,04,08,08,19,10.00
2016,04,08,08,20,10.10
2016,04,08,08,21,10.10
2016,04,08,08,22,10.20
2016,04,08,08,23,10.30
2016,04,08,08,24,10.30
2016,04,08,08,25,10.40
2016,04,08,08,26,10.40
2016,04,08,08,27,10.50
2016,04,08,08,28,10.50
2016,04,08,08,29,10.60
2016,04,08,08,30,10.70
2016,04,08,08,31,10.80
2016,04,08,08,32,10.90
2016,04,08,08,33,10.90
2016,04,08,08,34,11.00
2016,04,08,08,35,11.10
2016,04,08,08,36,11.20
2016,04,08,08,37,11.30
2016,04,08,08,38,11.30
2016,04,08,08,39,11.40
2016,04,08,08,40,11.50
2016,04,08,08,41,11.60
2016,04,08,08,42,11.70
2016,04,08,08,43,11.80
2016,04,08,08,44,11.80
2016,04,08,08,45,11.90
2016,04,08,08,46,11.90
2016,04,08,08,47,11.90
2016,04,08,08,48,12.00
2016,04,08,08,49,12.10
2016,04,08,08,50,12.10
2016,04,08,08,51,12.10
2016,04,08,08,52,12.20
2016,04,08,08,53,12.20
2016,04,08,08,54,12.20
2016,04,08,08,55,12.30
2016,04,08,08,56,12.30
2016,04,08,08,57,12.40
2016,04,08,08,58,12.40
2016,04,08,08,59,12.50
2016,04,08,09,00,12.60
2016,04,08,09,01,12.70
2016,04,08,09,02,12.70
2016,04,08,09,03,12.80
2016,04,08,09,04,12.90
2016,04,08,09,05,12.90
2016,04,08,09,06,13.00
2016,04,08,09,07,13.10
2016,04,08,09,08,13.10
2016,04,08,09,09,13.10
2016,04,08,09,10,13.20
2016,04,08,09,11,13.20
2016,04,08,09,12,13.30
2016,04,08,09,13,13.30
2016,04,08,09,14,13.30
2016,04,08,09,15,13.30
2016,04,08,09,16,13.30
2016,04,08,09,17,13.30
2016,04,08,09,18,13.40
2016,04,08,09,19,13.30
2016,04,08,09,20,13.30
2016,04,08,09,21,13.30
2016,04,08,09,22,13.30
2016,04,08,09,23,13.30
2016,04,08,09,24,13.30
2016,04,08,09,25,13.30
2016,04,08,09,26,13.30
2016,04,08,09,27,13.30
2016,04,08,09,28,13.30
2016,04,08,09,29,13.40
2016,04,08,09,30,13.50
2016,04,08,09,31,13.60
2016,04,08,09,32,13.70
2016,04,08,09,33,13.70
2016,04,08,09,34,13.80
2016,04,08,09,35,13.90
2016,04,08,09,36,14.00
2016,04,08,09,37,14.10
2016,04,08,09,38,14.20
2016,04,08,09,39,14.30
2016,04,08,09,40,14.40
2016,04,08,09,41,14.40
2016,04,08,09,42,14.40
2016,04,08,09,43,14.50
2016,04,08,09,44,14.40
2016,04,08,09,45,14.50
2016,04,08,09,46,14.50
2016,04,08,09,47,14.50
2016,04,08,09,48,14.50
2016,04,08,09,49,14.60
2016,04,08,09,50,14.60
2016,04,08,09,51,14.60
2016,04,08,09,52,14.70
2016,04,08,09,53,14.70
2016,04,08,09,54,14.80
2016,04,08,09,55,14.80
2016,04,08,09,56,14.90
2016,04,08,09,57,15.00
2016,04,08,09,58,15.10
2016,04,08,09,59,15.20
2016,04,08,10,00,15.30
2016,04,08,10,01,15.40
2016,04,08,10,02,15.40
2016,04,08,10,03,15.50
2016,04,08,10,04,15.50
2016,04,08,10,05,15.60
2016,04,08,10,06,15.70
2016,04,08,10,07,15.70
2016,04,08,10,08,15.80
2016,04,08,10,09,15.80
2016,04,08,10,10,15.90
2016,04,08,10,11,15.90
2016,04,08,10,12,16.00
2016,04,08,10,13,16.10
2016,04,08,10,14,16.20
2016,04,08,10,15,16.30
2016,04,08,10,16,16.30
2016,04,08,10,17,16.40
2016,04,08,10,18,16.50
2016,04,08,10,19,16.50
2016,04,08,10,20,16.60
2016,04,08,10,21,16.60
2016,04,08,10,22,16.70
2016,04,08,10,23,16.80
2016,04,08,10,24,16.80
2016,04,08,10,25,16.80
2016,04,08,10,26,16.90
2016,04,08,10,27,16.90
2016,04,08,10,28,17.00
2016,04,08,10,29,17.00
2016,04,08,10,30,17.10
2016,04,08,10,31,17.20
2016,04,08,10,32,17.30
2016,04,08,10,33,17.30
2016,04,08,10,34,17.40
2016,04,08,10,35,17.40
2016,04,08,10,36,17.40
2016,04,08,10,37,17.40
2016,04,08,10,38,17.40
2016,04,08,10,39,17.40
2016,04,08,10,40,17.40
2016,04,08,10,41,17.40
2016,04,08,10,42,17.30
2016,04,08,10,43,17.30
2016,04,08,10,44,17.30
2016,04,08,10,45,17.30
2016,04,08,10,46,17.30
2016,04,08,10,47,17.30
2016,04,08,10,48,17.30
2016,04,08,10,49,17.20
2016,04,08,10,50,17.20
2016,04,08,10,51,17.20
2016,04,08,10,52,17.20
2016,04,08,10,53,17.30
2016,04,08,10,54,17.30
2016,04,08,10,55,17.40
2016,04,08,10,56,17.40
2016,04,08,10,57,17.40
2016,04,08,10,58,17.50
2016,04,08,10,59,17.60
2016,04,08,11,00,17.60
2016,04,08,11,01,17.50
2016,04,08,11,02,17.50
2016,04,08,11,03,17.40
2016,04,08,11,04,17.40
2016,04,08,11,05,17.30
2016,04,08,11,06,17.30
2016,04,08,11,07,17.30
2016,04,08,11,08,17.30
2016,04,08,11,09,17.30
2016,04,08,11,10,17.30
2016,04,08,11,11,17.30
2016,04,08,11,12,17.30
2016,04,08,11,13,17.30
2016,04,08,11,14,17.30
2016,04,08,11,15,17.30
2016,04,08,11,16,17.30
2016,04,08,11,17,17.40
2016,04,08,11,18,17.40
2016,04,08,11,19,17.50
2016,04,08,11,20,17.60
2016,04,08,11,21,17.60
2016,04,08,11,22,17.70
2016,04,08,11,23,17.80
2016,04,08,11,24,17.90
2016,04,08,11,25,17.90
2016,04,08,11,26,18.00
2016,04,08,11,27,18.10
2016,04,08,11,28,18.20
2016,04,08,11,29,18.30
2016,04,08,11,30,18.40
2016,04,08,11,31,18.40
2016,04,08,11,32,18.50
2016,04,08,11,33,18.60
2016,04,08,11,34,18.70
2016,04,08,11,35,18.70
2016,04,08,11,36,18.70
2016,04,08,11,37,18.80
2016,04,08,11,38,18.80
2016,04,08,11,39,18.90
2016,04,08,11,40,19.00
2016,04,08,11,41,19.10
2016,04,08,11,42,19.20
2016,04,08,11,43,19.30
2016,04,08,11,44,19.40
2016,04,08,11,45,19.50
2016,04,08,11,46,19.60
2016,04,08,11,47,19.70
2016,04,08,11,48,19.70
2016,04,08,11,49,19.70
2016,04,08,11,50,19.80
2016,04,08,11,51,19.80
2016,04,08,11,52,19.80
2016,04,08,11,53,19.90
2016,04,08,11,54,20.00
2016,04,08,11,55,20.20
2016,04,08,11,56,20.30
2016,04,08,11,57,20.40
2016,04,08,11,58,20.50
2016,04,08,11,59,20.60
2016,04,08,12,00,20.70
2016,04,08,12,01,20.90
2016,04,08,12,02,21.00
2016,04,08,12,03,21.10
2016,04,08,12,04,21.20
2016,04,08,12,05,21.30
2016,04,08,12,06,21.30
2016,04,08,12,07,21.30
2016,04,08,12,08,21.40
2016,04,08,12,09,21.50
2016,04,08,12,10,21.60
2016,04,08,12,11,21.70
2016,04,08,12,12,21.80
2016,04,08,12,13,21.80
2016,04,08,12,14,21.70
2016,04,08,12,15,21.70
2016,04,08,12,16,21.70
2016,04,08,12,17,21.60
2016,04,08,12,18,21.50
2016,04,08,12,19,21.40
2016,04,08,12,20,21.40
2016,04,08,12,21,21.30
2016,04,08,12,22,21.40
2016,04,08,12,23,21.40
2016,04,08,12,24,21.30
2016,04,08,12,25,21.30
2016,04,08,12,26,21.20
2016,04,08,12,27,21.10
2016,04,08,12,28,21.10
2016,04,08,12,29,21.10
2016,04,08,12,30,21.10
2016,04,08,12,31,21.10
2016,04,08,12,32,21.10
2016,04,08,12,33,21.00
2016,04,08,12,34,20.90
2016,04,08,12,35,20.80
2016,04,08,12,36,20.70
2016,04,08,12,37,20.60
2016,04,08,12,38,20.60
2016,04,08,12,39,20.60
2016,04,08,12,40,20.70
2016,04,08,12,41,20.80
2016,04,08,12,42,20.80
2016,04,08,12,43,20.90
2016,04,08,12,44,20.90
2016,04,08,12,45,20.90
2016,04,08,12,46,20.90
2016,04,08,12,47,20.90
2016,04,08,12,48,21.00
2016,04,08,12,49,21.00
2016,04,08,12,50,21.10
2016,04,08,12,51,21.20
2016,04,08,12,52,21.30
2016,04,08,12,53,21.30
2016,04,08,12,54,21.40
2016,04,08,12,55,21.50
2016,04,08,12,56,21.60
2016,04,08,12,57,21.60
2016,04,08,12,58,21.60
2016,04,08,12,59,21.60
2016,04,08,13,00,21.60
2016,04,08,13,01,21.60
2016,04,08,13,02,21.60
2016,04,08,13,03,21.60
2016,04,08,13,04,21.70
2016,04,08,13,05,21.70
2016,04,08,13,06,21.80
2016,04,08,13,07,21.80
2016,04,08,13,08,21.80
2016,04,08,13,09,21.80
2016,04,08,13,10,21.80
2016,04,08,13,11,21.70
2016,04,08,13,12,21.60
2016,04,08,13,13,21.60
2016,04,08,13,14,21.50
2016,04,08,13,15,21.50
2016,04,08,13,16,21.30
2016,04,08,13,17,21.30
2016,04,08,13,18,21.20
2016,04,08,13,19,21.20
2016,04,08,13,20,21.10
2016,04,08,13,21,20.90
2016,04,08,13,22,20.70
2016,04,08,13,23,20.50
2016,04,08,13,24,20.20
2016,04,08,13,25,20.00
2016,04,08,13,26,19.80
2016,04,08,13,27,19.80
2016,04,08,13,28,19.80
2016,04,08,13,29,19.80
2016,04,08,13,30,19.70
2016,04,08,13,31,19.60
2016,04,08,13,32,19.60
2016,04,08,13,33,19.50
2016,04,08,13,34,19.50
2016,04,08,13,35,19.50
2016,04,08,13,36,19.50
2016,04,08,13,37,19.60
2016,04,08,13,38,19.60
2016,04,08,13,39,19.60
2016,04,08,13,40,19.60
2016,04,08,13,41,19.70
2016,04,08,13,42,19.70
2016,04,08,13,43,19.70
2016,04,08,13,44,19.70
2016,04,08,13,45,19.70
2016,04,08,13,46,19.70
2016,04,08,13,47,19.60
2016,04,08,13,48,19.60
2016,04,08,13,49,19.60
2016,04,08,13,50,19.60
2016,04,08,13,51,19.50
2016,04,08,13,52,19.40
2016,04,08,13,53,19.30
2016,04,08,13,54,19.20
2016,04,08,13,55,19.10
2016,04,08,13,56,19.00
2016,04,08,13,57,18.90
2016,04,08,13,58,18.90
2016,04,08,13,59,18.80
2016,04,08,14,00,18.90
2016,04,08,14,01,18.90
2016,04,08,14,02,18.90
2016,04,08,14,03,19.00
2016,04,08,14,04,19.00
2016,04,08,14,05,19.10
2016,04,08,14,06,19.20
2016,04,08,14,07,19.30
2016,04,08,14,08,19.30
2016,04,08,14,09,19.30
2016,04,08,14,10,19.30
2016,04,08,14,11,19.30
2016,04,08,14,12,19.30
2016,04,08,14,13,19.40
2016,04,08,14,14,19.50
2016,04,08,14,15,19.60
2016,04,08,14,16,19.60
2016,04,08,14,17,19.60
2016,04,08,14,18,19.70
2016,04,08,14,19,19.70
2016,04,08,14,20,19.80
2016,04,08,14,21,19.80
2016,04,08,14,22,19.90
2016,04,08,14,23,19.90
2016,04,08,14,24,20.00
2016,04,08,14,25,20.00
2016,04,08,14,26,20.10
2016,04,08,14,27,20.00
2016,04,08,14,28,20.00
2016,04,08,14,29,19.90
2016,04,08,14,30,19.90
2016,04,08,14,31,19.80
2016,04,08,14,32,19.80
2016,04,08,14,33,19.80
2016,04,08,14,34,19.90
2016,04,08,14,35,19.90
2016,04,08,14,36,20.00
2016,04,08,14,37,20.10
2016,04,08,14,38,20.20
2016,04,08,14,39,20.30
2016,04,08,14,40,20.30
2016,04,08,14,41,20.30
2016,04,08,14,42,20.40
2016,04,08,14,43,20.50
2016,04,08,14,44,20.60
2016,04,08,14,45,20.60
2016,04,08,14,46,20.70
2016,04,08,14,47,20.80
2016,04,08,14,48,20.80
2016,04,08,14,49,20.90
2016,04,08,14,50,21.00
2016,04,08,14,51,21.00
2016,04,08,14,52,21.10
2016,04,08,14,53,21.20
2016,04,08,14,54,21.30
2016,04,08,14,55,21.40
2016,04,08,14,56,21.50
2016,04,08,14,57,21.60
2016,04,08,14,58,21.70
2016,04,08,14,59,21.80
2016,04,08,15,00,21.90
2016,04,08,15,01,21.90
2016,04,08,15,02,22.00
2016,04,08,15,03,22.10
2016,04,08,15,04,22.20
2016,04,08,15,05,22.30
2016,04,08,15,06,22.30
2016,04,08,15,07,22.40
2016,04,08,15,08,22.50
2016,04,08,15,09,22.60
2016,04,08,15,10,22.70
2016,04,08,15,11,22.70
2016,04,08,15,12,22.70
2016,04,08,15,13,22.70
2016,04,08,15,14,22.70
2016,04,08,15,15,22.70
2016,04,08,15,16,22.70
2016,04,08,15,17,22.80
2016,04,08,15,18,22.70
2016,04,08,15,19,22.70
2016,04,08,15,20,22.70
2016,04,08,15,21,22.70
2016,04,08,15,22,22.70
2016,04,08,15,23,22.60
2016,04,08,15,24,22.60
2016,04,08,15,25,22.60
2016,04,08,15,26,22.60
2016,04,08,15,27,22.50
2016,04,08,15,28,22.40
2016,04,08,15,29,22.30
2016,04,08,15,30,22.10
2016,04,08,15,31,22.00
2016,04,08,15,32,21.80
2016,04,08,15,33,21.70
2016,04,08,15,34,21.60
2016,04,08,15,35,21.60
2016,04,08,15,36,21.50
2016,04,08,15,37,21.50
2016,04,08,15,38,21.50
2016,04,08,15,39,21.40
2016,04,08,15,40,21.40
2016,04,08,15,41,21.40
2016,04,08,15,42,21.30
2016,04,08,15,43,21.30
2016,04,08,15,44,21.30
2016,04,08,15,45,21.20
2016,04,08,15,46,21.10
2016,04,08,15,47,21.00
2016,04,08,15,48,20.90
2016,04,08,15,49,20.90
2016,04,08,15,50,20.80
2016,04,08,15,51,20.80
2016,04,08,15,52,20.80
2016,04,08,15,53,20.70
2016,04,08,15,54,20.70
2016,04,08,15,55,20.70
2016,04,08,15,56,20.70
2016,04,08,15,57,20.70
2016,04,08,15,58,20.70
2016,04,08,15,59,20.70
2016,04,08,16,00,20.70
2016,04,08,16,01,20.60
2016,04,08,16,02,20.50
2016,04,08,16,03,20.40
2016,04,08,16,04,20.40
2016,04,08,16,05,20.40
2016,04,08,16,06,20.40
2016,04,08,16,07,20.40
2016,04,08,16,08,20.40
2016,04,08,16,09,20.40
2016,04,08,16,10,20.40
2016,04,08,16,11,20.40
2016,04,08,16,12,20.40
2016,04,08,16,13,20.50
2016,04,08,16,14,20.50
2016,04,08,16,15,20.60
2016,04,08,16,16,20.70
2016,04,08,16,17,20.70
2016,04,08,16,18,20.70
2016,04,08,16,19,20.60
2016,04,08,16,20,20.60
2016,04,08,16,21,20.60
2016,04,08,16,22,20.50
2016,04,08,16,23,20.40
2016,04,08,16,24,20.40
2016,04,08,16,25,20.40
2016,04,08,16,26,20.40
2016,04,08,16,27,20.40
2016,04,08,16,28,20.40
2016,04,08,16,29,20.40
2016,04,08,16,30,20.40
2016,04,08,16,31,20.40
2016,04,08,16,32,20.40
2016,04,08,16,33,20.50
2016,04,08,16,34,20.50
2016,04,08,16,35,20.60
2016,04,08,16,36,20.60
2016,04,08,16,37,20.70
2016,04,08,16,38,20.60
2016,04,08,16,39,20.60
2016,04,08,16,40,20.60
2016,04,08,16,41,20.60
2016,04,08,16,42,20.50
2016,04,08,16,43,20.50
2016,04,08,16,44,20.40
2016,04,08,16,45,20.40
2016,04,08,16,46,20.40
2016,04,08,16,47,20.40
2016,04,08,16,48,20.40
2016,04,08,16,49,20.40
2016,04,08,16,50,20.40
2016,04,08,16,51,20.40
2016,04,08,16,52,20.40
2016,04,08,16,53,20.40
2016,04,08,16,54,20.40
2016,04,08,16,55,20.40
2016,04,08,16,56,20.40
2016,04,08,16,57,20.30
2016,04,08,16,58,20.30
2016,04,08,16,59,20.20
2016,04,08,17,00,20.20
2016,04,08,17,01,20.20
2016,04,08,17,02,20.20
2016,04,08,17,03,20.20
2016,04,08,17,04,20.20
2016,04,08,17,05,20.30
2016,04,08,17,06,20.30
2016,04,08,17,07,20.40
2016,04,08,17,08,20.40
2016,04,08,17,09,20.40
2016,04,08,17,10,20.40
2016,04,08,17,11,20.40
2016,04,08,17,12,20.40
2016,04,08,17,13,20.50
2016,04,08,17,14,20.50
2016,04,08,17,15,20.60
2016,04,08,17,16,20.60
2016,04,08,17,17,20.60
2016,04,08,17,18,20.70
2016,04,08,17,19,20.70
2016,04,08,17,20,20.60
2016,04,08,17,21,20.60
2016,04,08,17,22,20.60
2016,04,08,17,23,20.60
2016,04,08,17,24,20.50
2016,04,08,17,25,20.50
2016,04,08,17,26,20.50
2016,04,08,17,27,20.50
2016,04,08,17,28,20.50
2016,04,08,17,29,20.50
2016,04,08,17,30,20.60
2016,04,08,17,31,20.60
2016,04,08,17,32,20.60
2016,04,08,17,33,20.70
2016,04,08,17,34,20.70
2016,04,08,17,35,20.70